Flag for Canada Weather past 2 weeks in Inuvik, Northwest Territories, Canada

Now
7 °F

Scattered clouds.


Feels Like: 7 °F
Forecast: 3 / 11 °F
Wind: 2 mph from East

Location: Inuvik

Current Time: Mar 26, 2015 at 11:41:59 PM

Latest Report: Mar 26, 2015 at 11:00 PM


Visibility: 15 mi

Pressure: 29.51 "Hg

Humidity: 72%

Dew point: 0 °F

Location of InuvikLocation

Historic Weather in Inuvik — Graph

°F

Inuvik temperature yesterday

Maximum temperature yesterday: 25 °F (at 8:00 PM)
Minimum temperature yesterday: -4 °F (at 4:00 AM)
Average temperature yesterday: 10 °F

Past Weeks' High & Low Weather Summary

 TemperatureHumidityPressure
High25 °F (Mar 25, 8:00 PM)85% (Mar 18, 8:00 AM)30.39 "Hg (Mar 18, 8:00 AM)
Low-26 °F (Mar 12, 8:00 AM)38% (Mar 16, 7:00 PM)29.50 "Hg (Mar 26, 9:00 PM)
Average0 °F66%30.09 "Hg
* Reported Mar 11 10:00 PM — Mar 26 10:00 PM, Inuvik, Weather by CustomWeather, © 2015

Note: Actual official high and low records may vary slightly from our data, if they occured in-between our weather recording intervals... More about our weather records

Advertising

Inuvik weather history for previous 24 hours

 ConditionsComfort  
Time TempWeatherWind HumidityBarometerVisibility
10:00 PM
Thu, Mar 26
12 °FScattered clouds.5 mph67%29.50 "Hg15 mi
9:00 PM18 °FPassing clouds.3 mph58%29.50 "Hg15 mi
8:00 PM19 °FPassing clouds.3 mph58%29.51 "Hg15 mi
7:00 PM19 °FPassing clouds.2 mph58%29.50 "Hg15 mi
6:00 PM19 °FPassing clouds.6 mph58%29.52 "Hg15 mi
5:00 PM19 °FPassing clouds.3 mph58%29.53 "Hg15 mi
4:00 PM18 °FPassing clouds.No wind62%29.56 "Hg15 mi
3:00 PM18 °FPassing clouds.6 mph62%29.58 "Hg15 mi
2:00 PM16 °FPassing clouds.3 mph67%29.58 "Hg15 mi
1:00 PM14 °FPassing clouds.5 mph67%29.59 "Hg15 mi
12:00 PM12 °FPassing clouds.2 mph62%29.61 "Hg15 mi
11:00 AM9 °FPassing clouds.5 mph78%29.63 "Hg15 mi
10:00 AM7 °FPassing clouds.3 mph78%29.64 "Hg15 mi
9:00 AM1 °FPassing clouds.2 mph85%29.65 "Hg15 mi
8:00 AM5 °FPassing clouds.5 mph85%29.65 "Hg15 mi
7:00 AM3 °FPassing clouds.2 mph85%29.67 "Hg15 mi
6:00 AM9 °FClear.6 mph85%29.68 "Hg15 mi
5:00 AM5 °FClear.5 mph85%29.70 "Hg15 mi
4:00 AM5 °FClear.No wind85%29.71 "Hg15 mi
3:00 AM10 °FClear.2 mph72%29.72 "Hg15 mi
2:00 AM14 °FClear.5 mph73%29.72 "Hg15 mi
1:00 AM16 °FClear.5 mph67%29.73 "Hg15 mi
12:00 AM19 °FPassing clouds.5 mph63%29.73 "Hg15 mi
11:00 PM
Wed, Mar 25
21 °FScattered clouds.2 mph58%29.74 "Hg15 mi
Weather by CustomWeather, © 2015

See weather overviewHow to use our weather pages